Year,Month,Day,Hour,Minute,Value (Times are PST for barometer in hPa)
2022,12,08,00,00,1009.38
2022,12,08,00,01,1009.38
2022,12,08,00,02,1009.38
2022,12,08,00,03,1009.38
2022,12,08,00,04,1009.38
2022,12,08,00,05,1009.38
2022,12,08,00,06,1009.38
2022,12,08,00,07,1009.38
2022,12,08,00,08,1009.38
2022,12,08,00,09,1009.33
2022,12,08,00,10,1009.18
2022,12,08,00,11,1009.18
2022,12,08,00,12,1008.79
2022,12,08,00,13,1007.69
2022,12,08,00,14,1007.69
2022,12,08,00,15,1007.69
2022,12,08,00,16,1007.69
2022,12,08,00,17,1007.69
2022,12,08,00,18,1007.69
2022,12,08,00,19,1007.69
2022,12,08,00,20,1007.69
2022,12,08,00,21,1007.69
2022,12,08,00,22,1007.69
2022,12,08,00,23,1007.69
2022,12,08,00,24,1007.69
2022,12,08,00,25,1007.69
2022,12,08,00,26,1007.69
2022,12,08,00,27,1007.69
2022,12,08,00,28,1007.69
2022,12,08,00,29,1007.95
2022,12,08,00,30,1008.88
2022,12,08,00,31,1008.70
2022,12,08,00,32,1008.27
2022,12,08,00,33,1006.98
2022,12,08,00,34,1006.98
2022,12,08,00,35,1006.98
2022,12,08,00,36,1006.98
2022,12,08,00,37,1006.98
2022,12,08,00,38,1005.46
2022,12,08,00,39,999.36
2022,12,08,00,40,998.89
2022,12,08,00,41,997.46
2022,12,08,00,42,997.46
2022,12,08,00,43,997.46
2022,12,08,00,44,997.46
2022,12,08,00,45,997.46
2022,12,08,00,46,997.46
2022,12,08,00,47,997.46
2022,12,08,00,48,997.46
2022,12,08,00,49,997.46
2022,12,08,00,50,997.46
2022,12,08,00,51,997.46
2022,12,08,00,52,997.46
2022,12,08,00,53,997.46
2022,12,08,00,54,997.46
2022,12,08,00,55,1000.16
2022,12,08,00,56,1008.30
2022,12,08,00,57,1008.47
2022,12,08,00,58,1008.47
2022,12,08,00,59,1008.43
2022,12,08,01,00,1008.30
2022,12,08,01,01,1008.30
2022,12,08,01,02,1008.30
2022,12,08,01,03,1008.30
2022,12,08,01,04,1008.30
2022,12,08,01,05,1008.30
2022,12,08,01,06,1008.30
2022,12,08,01,07,1008.32
2022,12,08,01,08,1008.36
2022,12,08,01,09,1008.33
2022,12,08,01,10,1008.33
2022,12,08,01,11,1008.33
2022,12,08,01,12,1008.33
2022,12,08,01,13,1008.33
2022,12,08,01,14,1008.33
2022,12,08,01,15,1008.33
2022,12,08,01,16,1008.33
2022,12,08,01,17,1008.33
2022,12,08,01,18,1008.33
2022,12,08,01,19,1008.32
2022,12,08,01,20,1008.31
2022,12,08,01,21,1008.32
2022,12,08,01,22,1008.30
2022,12,08,01,23,1008.32
2022,12,08,01,24,1008.39
2022,12,08,01,25,1008.42
2022,12,08,01,26,1008.35
2022,12,08,01,27,1008.31
2022,12,08,01,28,1008.31
2022,12,08,01,29,1008.26
2022,12,08,01,30,1008.28
2022,12,08,01,31,1008.32
2022,12,08,01,32,1008.31
2022,12,08,01,33,1008.35
2022,12,08,01,34,1008.39
2022,12,08,01,35,1008.37
2022,12,08,01,36,1008.36
2022,12,08,01,37,1008.34
2022,12,08,01,38,1008.37
2022,12,08,01,39,1008.36
2022,12,08,01,40,1008.34
2022,12,08,01,41,1008.36
2022,12,08,01,42,1008.34
2022,12,08,01,43,1008.35
2022,12,08,01,44,1008.32
2022,12,08,01,45,1008.37
2022,12,08,01,46,1008.36
2022,12,08,01,47,1008.31
2022,12,08,01,48,1008.29
2022,12,08,01,49,1008.37
2022,12,08,01,50,1008.36
2022,12,08,01,51,1008.30
2022,12,08,01,52,1008.29
2022,12,08,01,53,1008.24
2022,12,08,01,54,1008.19
2022,12,08,01,55,1008.18
2022,12,08,01,56,1008.25
2022,12,08,01,57,1008.30
2022,12,08,01,58,1008.28
2022,12,08,01,59,1008.26
2022,12,08,02,00,1008.39
2022,12,08,02,01,1008.38
2022,12,08,02,02,1008.41
2022,12,08,02,03,1008.45
2022,12,08,02,04,1008.43
2022,12,08,02,05,1008.52
2022,12,08,02,06,1008.48
2022,12,08,02,07,1008.50
2022,12,08,02,08,1008.51
2022,12,08,02,09,1008.52
2022,12,08,02,10,1008.50
2022,12,08,02,11,1008.51
2022,12,08,02,12,1008.54
2022,12,08,02,13,1008.60
2022,12,08,02,14,1008.69
2022,12,08,02,15,1008.70
2022,12,08,02,16,1008.78
2022,12,08,02,17,1008.82
2022,12,08,02,18,1008.86
2022,12,08,02,19,1008.85
2022,12,08,02,20,1008.87
2022,12,08,02,21,1008.87
2022,12,08,02,22,1008.88
2022,12,08,02,23,1008.91
2022,12,08,02,24,1008.91
2022,12,08,02,25,1008.32
2022,12,08,02,26,1006.13
2022,12,08,02,27,1006.13
2022,12,08,02,28,1006.13
2022,12,08,02,29,1006.13
2022,12,08,02,30,1005.78
2022,12,08,02,31,1004.74
2022,12,08,02,32,1003.36
2022,12,08,02,33,999.23
2022,12,08,02,34,999.25
2022,12,08,02,35,999.22
2022,12,08,02,36,999.22
2022,12,08,02,37,999.22
2022,12,08,02,38,999.22
2022,12,08,02,39,999.22
2022,12,08,02,40,999.22
2022,12,08,02,41,999.22
2022,12,08,02,42,999.22
2022,12,08,02,43,1000.18
2022,12,08,02,44,1004.00
2022,12,08,02,45,1005.36
2022,12,08,02,46,1009.45
2022,12,08,02,47,1009.45
2022,12,08,02,48,1009.46
2022,12,08,02,49,1009.47
2022,12,08,02,50,1009.45
2022,12,08,02,51,1009.45
2022,12,08,02,52,1009.45
2022,12,08,02,53,1009.45
2022,12,08,02,54,1009.45
2022,12,08,02,55,1009.45
2022,12,08,02,56,1006.34
2022,12,08,02,57,996.99
2022,12,08,02,58,996.99
2022,12,08,02,59,996.99
2022,12,08,03,00,996.99
2022,12,08,03,01,996.99
2022,12,08,03,02,997.77
2022,12,08,03,06,1000.88
2022,12,08,03,07,1000.88
2022,12,08,03,08,1000.88
2022,12,08,03,09,1000.88
2022,12,08,03,10,1000.88
2022,12,08,03,11,1000.88
2022,12,08,03,12,1000.88
2022,12,08,03,13,1000.88
2022,12,08,03,14,1000.88
2022,12,08,03,15,1000.88
2022,12,08,03,16,1000.88
2022,12,08,03,17,1000.88
2022,12,08,03,18,1000.88
2022,12,08,03,19,1004.18
2022,12,08,03,20,1009.14
2022,12,08,03,21,1009.14
2022,12,08,03,22,1009.14
2022,12,08,03,23,1009.14
2022,12,08,03,24,1008.37
2022,12,08,03,25,1007.21
2022,12,08,03,26,1007.21
2022,12,08,03,27,1007.21
2022,12,08,03,28,1007.21
2022,12,08,03,29,1007.21
2022,12,08,03,30,1007.21
2022,12,08,03,31,1007.21
2022,12,08,03,32,1006.75
2022,12,08,03,33,1006.06
2022,12,08,03,34,1006.06
2022,12,08,03,35,1006.09
2022,12,08,03,36,1006.13
2022,12,08,03,37,1006.13
2022,12,08,03,38,1006.13
2022,12,08,03,39,1002.14
2022,12,08,03,40,995.29
2022,12,08,03,41,995.99
2022,12,08,03,42,997.05
2022,12,08,03,43,997.05
2022,12,08,03,44,998.20
2022,12,08,03,45,999.93
2022,12,08,03,46,999.44
2022,12,08,03,47,998.54
2022,12,08,03,48,998.54
2022,12,08,03,49,998.54
2022,12,08,03,50,998.54
2022,12,08,03,51,998.54
2022,12,08,03,52,998.54
2022,12,08,03,53,998.54
2022,12,08,03,54,998.54
2022,12,08,03,55,998.54
2022,12,08,03,56,998.54
2022,12,08,03,57,998.54
2022,12,08,03,58,998.54
2022,12,08,03,59,998.54
2022,12,08,04,00,998.54
2022,12,08,04,01,998.54
2022,12,08,04,02,998.54
2022,12,08,04,03,998.54
2022,12,08,04,04,998.54
2022,12,08,04,05,998.54
2022,12,08,04,06,998.54
2022,12,08,04,07,1002.77
2022,12,08,04,08,1009.87
2022,12,08,04,09,1009.80
2022,12,08,04,10,1010.02
2022,12,08,04,11,1010.02
2022,12,08,04,12,1010.14
2022,12,08,04,13,1010.33
2022,12,08,04,14,1010.33
2022,12,08,04,15,1010.36
2022,12,08,04,16,1010.41
2022,12,08,04,17,1010.46
2022,12,08,04,18,1010.54
2022,12,08,04,19,1010.59
2022,12,08,04,20,1010.58
2022,12,08,04,21,1010.62
2022,12,08,04,22,1010.67
2022,12,08,04,23,1010.67
2022,12,08,04,24,1010.67
2022,12,08,04,25,1010.67
2022,12,08,04,26,1010.67
2022,12,08,04,27,1010.67
2022,12,08,04,28,1010.67
2022,12,08,04,29,1010.67
2022,12,08,04,30,1010.67
2022,12,08,04,31,1010.67
2022,12,08,04,32,1010.23
2022,12,08,04,33,1009.58
2022,12,08,04,34,1009.58
2022,12,08,04,35,1009.85
2022,12,08,04,36,1010.45
2022,12,08,04,37,1010.74
2022,12,08,04,38,1010.71
2022,12,08,04,39,1010.67
2022,12,08,04,40,1010.67
2022,12,08,04,41,1010.68
2022,12,08,04,42,1010.68
2022,12,08,04,43,1010.56
2022,12,08,04,44,1010.52
2022,12,08,04,45,1010.59
2022,12,08,04,46,1010.55
2022,12,08,04,47,1010.57
2022,12,08,04,48,1010.57
2022,12,08,04,49,1010.57
2022,12,08,04,50,1010.54
2022,12,08,04,51,1010.51
2022,12,08,04,52,1010.53
2022,12,08,04,53,1010.52
2022,12,08,04,54,1010.50
2022,12,08,04,55,1010.50
2022,12,08,04,56,1010.50
2022,12,08,04,57,1010.50
2022,12,08,04,58,1010.50
2022,12,08,04,59,1010.50
2022,12,08,05,00,1010.50
2022,12,08,05,01,1010.50
2022,12,08,05,02,1010.50
2022,12,08,05,03,1010.50
2022,12,08,05,04,1010.50
2022,12,08,05,05,1010.50
2022,12,08,05,06,1010.50
2022,12,08,05,07,1010.50
2022,12,08,05,08,1010.50
2022,12,08,05,09,1010.50
2022,12,08,05,10,1010.50
2022,12,08,05,11,1010.50
2022,12,08,05,12,1010.50
2022,12,08,05,13,1010.50
2022,12,08,05,14,1005.77
2022,12,08,05,15,996.99
2022,12,08,05,16,996.99
2022,12,08,05,17,996.99
2022,12,08,05,18,996.99
2022,12,08,05,19,997.57
2022,12,08,05,20,998.32
2022,12,08,05,21,998.10
2022,12,08,05,22,998.10
2022,12,08,05,23,998.24
2022,12,08,05,24,998.71
2022,12,08,05,25,998.71
2022,12,08,05,26,998.71
2022,12,08,05,27,997.85
2022,12,08,05,28,996.38
2022,12,08,05,29,996.38
2022,12,08,05,30,997.88
2022,12,08,05,31,1000.44
2022,12,08,05,32,1000.44
2022,12,08,05,33,1000.44
2022,12,08,05,34,1000.44
2022,12,08,05,35,1003.53
2022,12,08,05,36,1009.28
2022,12,08,05,37,1009.84
2022,12,08,05,38,1010.67
2022,12,08,05,39,1010.67
2022,12,08,05,40,1010.67
2022,12,08,05,41,1010.67
2022,12,08,05,42,1010.67
2022,12,08,05,43,1010.67
2022,12,08,05,44,1010.67
2022,12,08,05,45,1010.72
2022,12,08,05,46,1010.80
2022,12,08,05,47,1010.78
2022,12,08,05,48,1010.75
2022,12,08,05,49,1010.77
2022,12,08,05,50,1010.80
2022,12,08,05,51,1010.83
2022,12,08,05,52,1010.80
2022,12,08,05,53,1010.81
2022,12,08,05,54,1010.82
2022,12,08,05,55,1010.78
2022,12,08,05,56,1010.79
2022,12,08,05,57,1010.77
2022,12,08,05,58,1010.77
2022,12,08,05,59,1010.77
2022,12,08,06,00,1010.77
2022,12,08,06,01,1010.77
2022,12,08,06,02,1010.77
2022,12,08,06,03,1010.77
2022,12,08,06,04,1010.55
2022,12,08,06,05,1010.27
2022,12,08,06,06,1010.53
2022,12,08,06,07,1010.62
2022,12,08,06,08,1010.79
2022,12,08,06,09,1010.78
2022,12,08,06,10,1010.80
2022,12,08,06,11,1010.80
2022,12,08,06,12,1010.79
2022,12,08,06,13,1010.77
2022,12,08,06,14,1010.06
2022,12,08,06,15,1008.13
2022,12,08,06,16,1008.13
2022,12,08,06,17,1008.13
2022,12,08,06,18,1009.09
2022,12,08,06,19,1010.89
2022,12,08,06,20,1010.74
2022,12,08,06,21,1010.40
2022,12,08,06,22,1009.95
2022,12,08,06,23,1009.15
2022,12,08,06,24,1009.41
2022,12,08,06,25,1009.88
2022,12,08,06,26,1009.90
2022,12,08,06,27,1009.48
2022,12,08,06,28,1009.78
2022,12,08,06,29,1010.61
2022,12,08,06,30,1010.94
2022,12,08,06,31,1010.94
2022,12,08,06,32,1010.97
2022,12,08,06,33,1011.04
2022,12,08,06,34,1010.59
2022,12,08,06,35,1009.58
2022,12,08,06,36,1009.57
2022,12,08,06,37,1009.55
2022,12,08,06,38,1009.55
2022,12,08,06,39,1009.55
2022,12,08,06,40,1009.55
2022,12,08,06,41,1005.98
2022,12,08,06,42,999.19
2022,12,08,06,43,999.19
2022,12,08,06,44,1000.25
2022,12,08,06,45,1002.27
2022,12,08,06,46,1002.27
2022,12,08,06,47,1002.56
2022,12,08,06,48,1003.12
2022,12,08,06,49,1003.12
2022,12,08,06,50,1003.12
2022,12,08,06,51,1003.12
2022,12,08,06,52,1003.12
2022,12,08,06,53,1003.12
2022,12,08,06,54,1003.12
2022,12,08,06,55,1003.12
2022,12,08,06,56,1003.12
2022,12,08,06,57,1003.12
2022,12,08,06,58,1003.12
2022,12,08,06,59,1003.12
2022,12,08,07,00,1003.12
2022,12,08,07,01,1003.12
2022,12,08,07,02,1003.12
2022,12,08,07,03,1003.12
2022,12,08,07,04,1003.12
2022,12,08,07,05,1003.12
2022,12,08,07,06,1003.12
2022,12,08,07,07,1005.99
2022,12,08,07,08,1011.29
2022,12,08,07,09,1011.24
2022,12,08,07,10,1011.24
2022,12,08,07,11,1011.24
2022,12,08,07,12,1010.34
2022,12,08,07,13,1008.48
2022,12,08,07,14,1008.06
2022,12,08,07,15,1008.06
2022,12,08,07,16,1008.06
2022,12,08,07,17,1008.06
2022,12,08,07,18,1008.06
2022,12,08,07,19,1008.06
2022,12,08,07,20,1008.06
2022,12,08,07,21,1008.06
2022,12,08,07,22,1008.06
2022,12,08,07,23,1008.06
2022,12,08,07,24,1004.14
2022,12,08,07,25,996.85
2022,12,08,07,26,996.85
2022,12,08,07,27,996.85
2022,12,08,07,28,996.85
2022,12,08,07,29,996.85
2022,12,08,07,30,996.85
2022,12,08,07,31,996.85
2022,12,08,07,32,996.85
2022,12,08,07,33,996.85
2022,12,08,07,34,996.85
2022,12,08,07,35,998.28
2022,12,08,07,36,1000.95
2022,12,08,07,37,1000.95
2022,12,08,07,38,1000.95
2022,12,08,07,39,1000.95
2022,12,08,07,40,999.02
2022,12,08,07,41,995.43
2022,12,08,07,42,995.03
2022,12,08,07,43,994.28
2022,12,08,07,44,994.71
2022,12,08,07,45,995.63
2022,12,08,07,46,995.23
2022,12,08,07,47,994.38
2022,12,08,07,48,994.38
2022,12,08,07,49,995.76
2022,12,08,07,50,998.75
2022,12,08,07,51,998.75
2022,12,08,07,52,998.75
2022,12,08,07,53,998.75
2022,12,08,07,54,998.75
2022,12,08,07,55,998.75
2022,12,08,07,56,998.75
2022,12,08,07,57,998.75
2022,12,08,07,58,998.75
2022,12,08,07,59,998.75
2022,12,08,08,00,998.75
2022,12,08,08,01,998.75
2022,12,08,08,02,998.75
2022,12,08,08,03,998.75
2022,12,08,08,04,998.75
2022,12,08,08,05,998.75
2022,12,08,08,06,998.75
2022,12,08,08,07,998.75
2022,12,08,08,08,998.75
2022,12,08,08,09,998.75
2022,12,08,08,10,998.75
2022,12,08,08,11,998.75
2022,12,08,08,12,998.75
2022,12,08,08,13,996.43
2022,12,08,08,14,991.26
2022,12,08,08,15,991.26
2022,12,08,08,16,991.26
2022,12,08,08,17,991.26
2022,12,08,08,18,991.26
2022,12,08,08,19,991.26
2022,12,08,08,20,991.26
2022,12,08,08,21,991.26
2022,12,08,08,22,991.26
2022,12,08,08,23,989.35
2022,12,08,08,24,985.71
2022,12,08,08,25,985.71
2022,12,08,08,26,985.71
2022,12,08,08,27,985.71
2022,12,08,08,28,985.71
2022,12,08,08,29,985.71
2022,12,08,08,30,985.71
2022,12,08,08,31,985.71
2022,12,08,08,32,985.71
2022,12,08,08,33,985.71
2022,12,08,08,34,985.71
2022,12,08,08,35,985.71
2022,12,08,08,36,984.42
2022,12,08,08,37,982.02
2022,12,08,08,38,982.02
2022,12,08,08,39,982.02
2022,12,08,08,40,982.02
2022,12,08,08,41,982.02
2022,12,08,08,42,981.21
2022,12,08,08,43,979.31
2022,12,08,08,44,979.31
2022,12,08,08,45,979.31
2022,12,08,08,46,979.31
2022,12,08,08,47,979.31
2022,12,08,08,48,977.53
2022,12,08,08,49,974.23
2022,12,08,08,50,974.23
2022,12,08,08,51,974.23
2022,12,08,08,52,974.23
2022,12,08,08,53,974.23
2022,12,08,08,54,974.23
2022,12,08,08,55,974.23
2022,12,08,08,56,974.23
2022,12,08,08,57,974.23
2022,12,08,08,58,974.23
2022,12,08,08,59,974.23
2022,12,08,09,00,974.23
2022,12,08,09,01,974.23
2022,12,08,09,02,974.23
2022,12,08,09,03,974.23
2022,12,08,09,04,974.23
2022,12,08,09,05,974.23
2022,12,08,09,06,974.23
2022,12,08,09,07,974.23
2022,12,08,09,08,974.23
2022,12,08,09,09,964.94
2022,12,08,09,10,947.68
2022,12,08,09,11,947.68
2022,12,08,09,12,947.68
2022,12,08,09,13,947.68
2022,12,08,09,14,947.68
2022,12,08,09,15,947.68
2022,12,08,09,16,947.68
2022,12,08,09,17,947.68
2022,12,08,09,18,947.68
2022,12,08,09,19,947.68
2022,12,08,09,20,947.68
2022,12,08,09,21,947.68
2022,12,08,09,22,947.68
2022,12,08,09,23,947.68
2022,12,08,09,24,947.68
2022,12,08,09,25,935.08
2022,12,08,09,26,911.68
2022,12,08,09,27,911.68
2022,12,08,09,28,911.68
2022,12,08,09,29,911.68
2022,12,08,09,30,911.68
2022,12,08,09,31,911.68
2022,12,08,09,32,911.68
2022,12,08,09,33,911.68
2022,12,08,09,34,911.68
2022,12,08,09,35,911.68
2022,12,08,09,36,911.68
2022,12,08,09,37,911.68
2022,12,08,09,38,911.68
2022,12,08,09,39,911.68
2022,12,08,09,40,911.68
2022,12,08,09,41,911.68
2022,12,08,09,42,911.68
2022,12,08,09,43,911.68
2022,12,08,09,44,911.68
2022,12,08,09,45,911.68
2022,12,08,09,46,911.68
2022,12,08,09,47,911.68
2022,12,08,09,48,911.68
2022,12,08,09,49,911.68
2022,12,08,09,50,911.68
2022,12,08,09,51,911.68
2022,12,08,15,36,923.77
2022,12,08,15,37,923.77
2022,12,08,15,38,923.77
2022,12,08,15,39,923.77
2022,12,08,15,40,923.77
2022,12,08,15,41,923.77
2022,12,08,15,42,923.77
2022,12,08,15,43,923.77
2022,12,08,15,44,923.77
2022,12,08,15,45,923.77
2022,12,08,15,46,920.37
2022,12,08,15,47,912.43
2022,12,08,15,48,912.43
2022,12,08,15,49,912.43
2022,12,08,15,50,912.43
2022,12,08,15,51,912.43
2022,12,08,15,52,912.43
2022,12,08,15,53,912.43
2022,12,08,15,54,912.43
2022,12,08,15,55,912.43
2022,12,08,15,56,912.43
2022,12,08,15,57,912.43
2022,12,08,15,58,912.43
2022,12,08,15,59,912.43
2022,12,08,16,00,912.43
2022,12,08,16,01,912.43
2022,12,08,16,02,912.43
2022,12,08,16,03,912.43
2022,12,08,16,04,912.43
2022,12,08,16,05,912.43
2022,12,08,16,06,912.43
2022,12,08,16,07,913.77
2022,12,08,16,08,917.78
2022,12,08,16,09,917.78
2022,12,08,16,10,917.78
2022,12,08,16,11,917.78
2022,12,08,16,12,917.78
2022,12,08,16,13,917.78
2022,12,08,16,14,917.78
2022,12,08,16,15,917.78
2022,12,08,16,16,917.78
2022,12,08,16,17,917.78
2022,12,08,16,18,917.78
2022,12,08,16,19,917.78
2022,12,08,16,20,917.78
2022,12,08,16,21,917.78
2022,12,08,16,22,917.78
2022,12,08,16,23,917.78
2022,12,08,16,24,917.78
2022,12,08,16,25,917.78
2022,12,08,16,26,917.78
2022,12,08,16,27,917.78
2022,12,08,16,28,917.78
2022,12,08,16,29,917.78
2022,12,08,16,30,917.78
2022,12,08,16,31,917.78
2022,12,08,16,32,917.78
2022,12,08,16,33,917.78
2022,12,08,16,34,917.78
2022,12,08,16,35,917.78
2022,12,08,16,36,917.78
2022,12,08,16,37,917.78
2022,12,08,16,38,917.78
2022,12,08,16,39,917.78
2022,12,08,16,40,917.78
2022,12,08,16,41,917.78
2022,12,08,16,42,917.78
2022,12,08,16,43,917.78
2022,12,08,16,44,917.78
2022,12,08,16,45,917.78
2022,12,08,16,46,917.78
2022,12,08,16,47,917.78
2022,12,08,16,48,917.78
2022,12,08,16,49,917.78
2022,12,08,16,50,917.78
2022,12,08,16,51,917.78
2022,12,08,16,52,917.78
2022,12,08,16,53,917.78
2022,12,08,16,54,917.78
2022,12,08,16,55,917.78
2022,12,08,16,56,929.25
2022,12,08,16,57,963.67
2022,12,08,16,58,963.67
2022,12,08,16,59,963.67
2022,12,08,17,00,963.67
2022,12,08,17,01,963.67
2022,12,08,17,02,963.67
2022,12,08,17,03,963.67
2022,12,08,17,04,963.67
2022,12,08,17,05,963.67
2022,12,08,17,06,963.67
2022,12,08,17,07,963.67
2022,12,08,17,08,963.04
2022,12,08,17,09,961.16
2022,12,08,17,10,961.16
2022,12,08,17,11,961.80
2022,12,08,17,12,964.34
2022,12,08,17,13,964.34
2022,12,08,17,14,964.34
2022,12,08,17,15,964.34
2022,12,08,17,16,964.34
2022,12,08,17,17,964.34
2022,12,08,17,18,964.34
2022,12,08,17,19,964.34
2022,12,08,17,20,964.34
2022,12,08,17,21,964.34
2022,12,08,17,22,964.34
2022,12,08,17,23,964.34
2022,12,08,17,24,964.34
2022,12,08,17,25,964.34
2022,12,08,17,26,964.34
2022,12,08,17,27,964.34
2022,12,08,17,28,964.34
2022,12,08,17,29,964.34
2022,12,08,17,30,964.34
2022,12,08,17,31,964.34
2022,12,08,17,32,964.34
2022,12,08,17,33,964.34
2022,12,08,17,34,964.34
2022,12,08,17,35,964.34
2022,12,08,17,36,964.34
2022,12,08,17,37,964.34
2022,12,08,17,38,964.34
2022,12,08,17,39,964.34
2022,12,08,17,40,964.34
2022,12,08,17,41,964.34
2022,12,08,17,42,964.34
2022,12,08,17,43,964.34
2022,12,08,17,44,964.34
2022,12,08,17,45,968.95
2022,12,08,17,46,982.76
2022,12,08,17,47,982.76
2022,12,08,17,48,982.76
2022,12,08,17,49,982.76
2022,12,08,17,50,982.76
2022,12,08,17,51,982.76
2022,12,08,17,52,982.76
2022,12,08,17,53,982.76
2022,12,08,17,54,982.76
2022,12,08,17,55,982.76
2022,12,08,17,56,980.35
2022,12,08,17,57,973.11
2022,12,08,17,58,973.11
2022,12,08,17,59,973.11
2022,12,08,18,00,973.11
2022,12,08,18,01,973.11
2022,12,08,18,02,973.11
2022,12,08,18,03,973.11
2022,12,08,18,04,973.11
2022,12,08,18,05,973.11
2022,12,08,18,06,973.11
2022,12,08,18,07,973.11
2022,12,08,18,08,973.11
2022,12,08,18,09,973.11
2022,12,08,18,10,973.11
2022,12,08,18,11,973.11
2022,12,08,18,12,973.11
2022,12,08,18,13,973.11
2022,12,08,18,14,973.11
2022,12,08,18,15,973.11
2022,12,08,18,16,973.11
2022,12,08,18,17,973.11
2022,12,08,18,18,973.11
2022,12,08,18,19,973.11
2022,12,08,18,20,973.11
2022,12,08,18,21,973.11
2022,12,08,18,22,973.11
2022,12,08,18,23,973.11
2022,12,08,18,24,976.96
2022,12,08,18,25,988.44
2022,12,08,18,26,988.25
2022,12,08,18,27,988.25
2022,12,08,18,28,988.25
2022,12,08,18,29,988.25
2022,12,08,18,30,988.25
2022,12,08,18,31,988.25
2022,12,08,18,32,988.25
2022,12,08,18,33,989.09
2022,12,08,18,34,992.45
2022,12,08,18,35,992.45
2022,12,08,18,36,992.45
2022,12,08,18,37,992.45
2022,12,08,18,38,991.65
2022,12,08,18,39,989.23
2022,12,08,18,40,989.23
2022,12,08,18,41,989.23
2022,12,08,18,42,989.71
2022,12,08,18,43,991.16
2022,12,08,18,44,991.16
2022,12,08,18,45,991.16
2022,12,08,18,46,991.16
2022,12,08,18,47,991.16
2022,12,08,18,48,991.16
2022,12,08,18,49,991.16
2022,12,08,18,50,991.16
2022,12,08,18,51,991.16
2022,12,08,18,52,991.16
2022,12,08,18,53,991.16
2022,12,08,18,54,991.16
2022,12,08,18,55,991.16
2022,12,08,18,56,991.16
2022,12,08,18,57,990.47
2022,12,08,18,58,988.27
2022,12,08,18,59,987.84
2022,12,08,19,00,987.84
2022,12,08,19,01,987.84
2022,12,08,19,02,987.84
2022,12,08,19,03,987.84
2022,12,08,19,04,987.84
2022,12,08,19,05,987.84
2022,12,08,19,06,987.84
2022,12,08,19,07,987.84
2022,12,08,19,08,987.84
2022,12,08,19,09,987.84
2022,12,08,19,10,987.84
2022,12,08,19,11,987.84
2022,12,08,19,12,987.84
2022,12,08,19,13,987.84
2022,12,08,19,14,987.84
2022,12,08,19,15,987.88
2022,12,08,19,16,988.01
2022,12,08,19,17,988.01
2022,12,08,19,18,988.01
2022,12,08,19,19,988.01
2022,12,08,19,20,988.01
2022,12,08,19,21,988.01
2022,12,08,19,22,988.01
2022,12,08,19,23,987.53
2022,12,08,19,24,985.67
2022,12,08,19,25,985.30
2022,12,08,19,26,985.00
2022,12,08,19,27,985.10
2022,12,08,19,28,985.10
2022,12,08,19,29,985.10
2022,12,08,19,30,985.10
2022,12,08,19,31,985.10
2022,12,08,19,32,985.10
2022,12,08,19,33,985.10
2022,12,08,19,34,985.10
2022,12,08,19,35,987.05
2022,12,08,19,36,992.92
2022,12,08,19,37,993.61
2022,12,08,19,38,995.70
2022,12,08,19,39,995.11
2022,12,08,19,40,992.89
2022,12,08,19,41,992.89
2022,12,08,19,42,992.89
2022,12,08,19,43,992.89
2022,12,08,19,44,992.89
2022,12,08,19,45,992.89
2022,12,08,19,46,992.89
2022,12,08,19,47,992.89
2022,12,08,19,48,992.89
2022,12,08,19,49,992.03
2022,12,08,19,50,989.47
2022,12,08,19,51,989.47
2022,12,08,19,52,989.47
2022,12,08,19,53,989.47
2022,12,08,19,54,989.47
2022,12,08,19,55,989.47
2022,12,08,19,56,989.47
2022,12,08,19,57,989.47
2022,12,08,19,58,989.47
2022,12,08,19,59,990.57
2022,12,08,20,00,996.34
2022,12,08,20,01,996.04
2022,12,08,20,02,996.04
2022,12,08,20,03,996.04
2022,12,08,20,04,996.04
2022,12,08,20,05,996.04
2022,12,08,20,06,996.04
2022,12,08,20,07,996.14
2022,12,08,20,08,996.51
2022,12,08,20,09,996.76
2022,12,08,20,10,997.70
2022,12,08,20,11,998.04
2022,12,08,20,12,999.39
2022,12,08,20,13,999.03
2022,12,08,20,14,997.87
2022,12,08,20,15,997.87
2022,12,08,20,16,997.87
2022,12,08,20,17,997.87
2022,12,08,20,18,997.87
2022,12,08,20,19,997.87
2022,12,08,20,20,998.34
2022,12,08,20,21,1000.24
2022,12,08,20,22,999.99
2022,12,08,20,23,999.05
2022,12,08,20,24,999.05
2022,12,08,20,25,999.05
2022,12,08,20,26,999.05
2022,12,08,20,27,999.05
2022,12,08,20,28,999.05
2022,12,08,20,29,999.05
2022,12,08,20,30,999.05
2022,12,08,20,31,999.05
2022,12,08,20,32,999.05
2022,12,08,20,33,999.05
2022,12,08,20,34,999.05
2022,12,08,20,35,999.05
2022,12,08,20,36,999.05
2022,12,08,20,37,999.05
2022,12,08,20,38,999.55
2022,12,08,20,39,1001.42
2022,12,08,20,40,1001.42
2022,12,08,20,41,1001.42
2022,12,08,20,42,1001.42
2022,12,08,20,43,1001.42
2022,12,08,20,44,1001.42
2022,12,08,20,45,1001.42
2022,12,08,20,46,1000.50
2022,12,08,20,47,996.82
2022,12,08,20,48,996.82
2022,12,08,20,49,996.82
2022,12,08,20,50,995.52
2022,12,08,20,51,990.32
2022,12,08,20,52,990.32
2022,12,08,20,53,990.32
2022,12,08,20,54,990.32
2022,12,08,20,55,990.32
2022,12,08,20,56,990.32
2022,12,08,20,57,990.32
2022,12,08,20,58,990.32
2022,12,08,20,59,992.13
2022,12,08,21,00,999.36
2022,12,08,21,01,999.36
2022,12,08,21,02,999.36
2022,12,08,21,03,999.36
2022,12,08,21,04,999.36
2022,12,08,21,05,999.36
2022,12,08,21,06,999.36
2022,12,08,21,07,999.36
2022,12,08,21,08,999.21
2022,12,08,21,09,998.61
2022,12,08,21,10,998.61
2022,12,08,21,11,998.61
2022,12,08,21,12,998.61
2022,12,08,21,13,998.61
2022,12,08,21,14,998.61
2022,12,08,21,15,998.61
2022,12,08,21,16,998.61
2022,12,08,21,17,998.61
2022,12,08,21,18,998.61
2022,12,08,21,19,998.61
2022,12,08,21,20,998.61
2022,12,08,21,21,998.61
2022,12,08,21,22,998.61
2022,12,08,21,23,998.61
2022,12,08,21,24,998.61
2022,12,08,21,25,998.61
2022,12,08,21,26,998.61
2022,12,08,21,27,998.61
2022,12,08,21,28,998.61
2022,12,08,21,29,998.61
2022,12,08,21,30,998.61
2022,12,08,21,31,998.61
2022,12,08,21,32,998.61
2022,12,08,21,33,998.61
2022,12,08,21,34,998.61
2022,12,08,21,35,998.61
2022,12,08,21,36,998.61
2022,12,08,21,37,998.61
2022,12,08,21,38,998.61
2022,12,08,21,39,998.61
2022,12,08,21,40,998.61
2022,12,08,21,41,998.61
2022,12,08,21,42,998.61
2022,12,08,21,43,998.61
2022,12,08,21,44,998.61
2022,12,08,21,45,998.61
2022,12,08,21,46,998.61
2022,12,08,21,47,998.61
2022,12,08,21,48,998.61
2022,12,08,21,49,998.61
2022,12,08,21,50,998.61
2022,12,08,21,51,998.61
2022,12,08,21,52,1000.47
2022,12,08,21,53,1011.04
2022,12,08,21,54,1011.04
2022,12,08,21,55,1010.80
2022,12,08,21,56,1009.86
2022,12,08,21,57,1009.86
2022,12,08,21,58,1009.86
2022,12,08,21,59,1010.02
2022,12,08,22,00,1010.94
2022,12,08,22,01,1010.94
2022,12,08,22,02,1011.11
2022,12,08,22,03,1011.74
2022,12,08,22,04,1011.45
2022,12,08,22,05,1011.45
2022,12,08,22,06,1011.45